カタログに戻る

COSMOS 2202

運用中通信PO
NORAD 22039·PAYLOAD·🇷🇺 Russia

打ち上げ Jul 13, 1992 から Plesetsk Cosmodrome

Loading…

次のパス (今後24時間)

TLE

最新Source: Space-Track

元期: Sep 14, 2026, 14:00 UTC

1 22039U 92042F   26257.58380984  .00000020  00000-0  53560-4 0  9995
2 22039  82.5991 196.8451 0009662  99.4050  74.0461 12.62665598574688

AllMySatでCOSMOS 2202をリアルタイム追跡

Download on the App Store